QPF
0.00 0.00 0.00 0.00 0.01 0.03 0.03 0.01 0.00 0.00 0.00 0.00 0.00 0.00 0.01 0.01 0.04 0.08 0.04 0.02 0.01 0.01 0.01 0.00 0.01 0.03 0.04 0.04 0.04 0.04 0.04 0.04 0.02 0.02 0.02 0.02 0.02 0.02 0.01 0.01 0.03 0.03 0.03 0.03 0.04 0.04 0.02 0.02 0.02
0.00 0.00 0.00 0.00 0.02 0.05 0.03 0.01 0.00 0.00 0.00 0.00 0.00 0.01 0.01 0.01 0.01 0.03 0.02 0.02 0.01 0.01 0.01 0.01 0.01 0.03 0.06 0.07 0.07 0.05 0.03 0.02 0.02 0.01 0.02 0.02 0.02 0.02 0.02 0.02 0.03 0.04 0.11 0.09 0.05 0.04 0.03 0.03 0.03
0.00 0.00 0.00 0.00 0.03 0.03 0.03 0.02 0.00 0.00 0.00 0.01 0.01 0.01 0.02 0.01 0.01 0.01 0.01 0.02 0.02 0.01 0.02 0.01 0.01 0.03 0.04 0.09 0.06 0.03 0.02 0.02 0.01 0.01 0.03 0.04 0.03 0.02 0.02 0.02 0.03 0.04 0.10 0.25 0.15 0.08 0.05 0.04 0.04
0.00 0.00 0.00 0.01 0.01 0.01 0.01 0.01 0.00 0.00 0.00 0.00 0.01 0.01 0.01 0.00 0.01 0.01 0.01 0.01 0.03 0.02 0.01 0.01 0.01 0.02 0.03 0.05 0.03 0.03 0.02 0.02 0.01 0.01 0.02 0.03 0.03 0.03 0.02 0.02 0.03 0.04 0.05 0.12 0.20 0.12 0.09 0.06 0.05
0.00 0.00 0.00 0.01 0.01 0.01 0.01 0.00 0.00 0.00 0.00 0.00 0.00 0.01 0.01 0.00 0.00 0.00 0.00 0.01 0.04 0.04 0.03 0.02 0.01 0.02 0.04 0.04 0.03 0.02 0.02 0.02 0.01 0.01 0.01 0.02 0.03 0.03 0.05 0.05 0.04 0.04 0.06 0.06 0.07 0.07 0.07 0.06 0.05
0.00 0.00 0.01 0.01 0.00 0.01 0.00 0.00 0.00 0.00 0.00 0.00 0.00 0.02 0.02 0.01 0.00 0.00 0.00 0.00 0.02 0.04 0.05 0.05 0.06 0.05 0.04 0.03 0.03 0.03 0.02 0.01 0.01 0.01 0.01 0.02 0.02 0.04 0.06 0.08 0.07 0.07 0.08 0.09 0.07 0.07 0.07 0.07 0.05
0.00 0.00 0.01 0.01 0.01 0.01 0.00 0.00 0.00 0.00 0.01 0.02 0.01 0.01 0.02 0.02 0.01 0.01 0.00 0.00 0.01 0.02 0.06 0.05 0.04 0.04 0.03 0.03 0.03 0.03 0.03 0.03 0.03 0.02 0.02 0.03 0.03 0.04 0.06 0.08 0.08 0.08 0.07 0.08 0.08 0.09 0.11 0.11 0.07
0.00 0.00 0.01 0.01 0.00 0.01 0.00 0.00 0.00 0.00 0.02 0.04 0.01 0.01 0.02 0.01 0.02 0.02 0.01 0.00 0.00 0.01 0.04 0.05 0.03 0.03 0.03 0.04 0.03 0.03 0.04 0.04 0.05 0.02 0.02 0.02 0.03 0.04 0.05 0.07 0.08 0.08 0.08 0.07 0.08 0.08 0.10 0.13 0.12
0.00 0.00 0.01 0.01 0.00 0.01 0.00 0.00 0.00 0.00 0.00 0.01 0.01 0.02 0.03 0.03 0.02 0.03 0.01 0.01 0.02 0.02 0.05 0.06 0.04 0.04 0.05 0.07 0.07 0.05 0.06 0.04 0.04 0.04 0.02 0.03 0.04 0.05 0.06 0.06 0.08 0.08 0.08 0.07 0.06 0.06 0.07 0.09 0.14
0.00 0.01 0.01 0.01 0.00 0.01 0.00 0.00 0.00 0.00 0.00 0.00 0.00 0.03 0.05 0.06 0.02 0.01 0.00 0.01 0.02 0.02 0.03 0.04 0.04 0.04 0.05 0.05 0.07 0.07 0.07 0.06 0.04 0.05 0.06 0.06 0.05 0.05 0.06 0.08 0.08 0.08 0.08 0.08 0.07 0.06 0.06 0.07 0.09
0.00 0.01 0.01 0.01 0.00 0.00 0.00 0.00 0.00 0.00 0.01 0.01 0.01 0.04 0.05 0.03 0.02 0.01 0.01 0.02 0.03 0.04 0.07 0.05 0.03 0.04 0.05 0.06 0.06 0.07 0.06 0.07 0.06 0.07 0.09 0.08 0.07 0.06 0.06 0.08 0.09 0.08 0.08 0.09 0.09 0.09 0.09 0.08 0.08
0.00 0.00 0.00 0.01 0.00 0.00 0.00 0.00 0.01 0.01 0.01 0.03 0.03 0.04 0.02 0.01 0.02 0.02 0.02 0.03 0.03 0.04 0.06 0.05 0.04 0.04 0.04 0.05 0.05 0.05 0.05 0.05 0.06 0.07 0.09 0.09 0.07 0.06 0.06 0.06 0.06 0.06 0.07 0.08 0.07 0.08 0.09 0.09 0.09
0.00 0.00 0.00 0.00 0.00 0.00 0.00 0.00 0.01 0.02 0.01 0.02 0.04 0.08 0.04 0.01 0.01 0.02 0.03 0.03 0.04 0.04 0.03 0.03 0.03 0.05 0.04 0.05 0.05 0.04 0.05 0.06 0.06 0.07 0.06 0.06 0.05 0.05 0.05 0.04 0.04 0.04 0.04 0.06 0.06 0.06 0.06 0.08 0.09
0.00 0.00 0.00 0.00 0.00 0.00 0.01 0.01 0.02 0.05 0.06 0.08 0.04 0.04 0.03 0.02 0.02 0.02 0.03 0.03 0.04 0.05 0.05 0.03 0.03 0.06 0.05 0.05 0.05 0.04 0.04 0.06 0.07 0.06 0.04 0.06 0.06 0.07 0.06 0.04 0.06 0.05 0.05 0.04 0.04 0.05 0.05 0.04 0.05
0.00 0.00 0.00 0.00 0.00 0.00 0.01 0.01 0.02 0.05 0.08 0.11 0.07 0.02 0.02 0.02 0.03 0.04 0.04 0.04 0.03 0.05 0.06 0.04 0.03 0.04 0.06 0.06 0.05 0.06 0.05 0.05 0.06 0.06 0.05 0.05 0.07 0.09 0.08 0.07 0.07 0.05 0.04 0.04 0.04 0.04 0.05 0.04 0.04
0.01 0.01 0.02 0.01 0.00 0.00 0.01 0.02 0.04 0.05 0.07 0.09 0.06 0.03 0.03 0.03 0.03 0.03 0.03 0.04 0.04 0.04 0.05 0.04 0.02 0.03 0.05 0.07 0.06 0.05 0.05 0.05 0.06 0.05 0.06 0.05 0.06 0.07 0.09 0.08 0.08 0.06 0.04 0.04 0.04 0.04 0.03 0.04 0.03
0.02 0.04 0.04 0.02 0.01 0.01 0.01 0.04 0.08 0.11 0.11 0.09 0.06 0.03 0.02 0.03 0.03 0.03 0.03 0.04 0.06 0.06 0.08 0.07 0.05 0.06 0.06 0.07 0.07 0.05 0.04 0.05 0.05 0.03 0.05 0.05 0.04 0.05 0.08 0.08 0.08 0.06 0.05 0.05 0.04 0.04 0.03 0.04 0.04
0.03 0.07 0.06 0.03 0.01 0.01 0.02 0.06 0.07 0.09 0.12 0.09 0.06 0.07 0.06 0.03 0.04 0.04 0.04 0.06 0.07 0.07 0.09 0.08 0.07 0.07 0.07 0.07 0.07 0.07 0.07 0.10 0.09 0.05 0.03 0.03 0.04 0.05 0.07 0.06 0.06 0.05 0.05 0.05 0.05 0.05 0.04 0.04 0.04
0.02 0.05 0.04 0.02 0.01 0.02 0.02 0.07 0.06 0.05 0.07 0.08 0.08 0.06 0.04 0.02 0.03 0.03 0.03 0.05 0.06 0.06 0.08 0.09 0.09 0.08 0.07 0.09 0.10 0.08 0.07 0.08 0.06 0.04 0.03 0.04 0.05 0.06 0.05 0.05 0.06 0.04 0.04 0.05 0.05 0.05 0.05 0.04 0.04
0.03 0.03 0.02 0.01 0.01 0.01 0.03 0.05 0.04 0.04 0.06 0.06 0.07 0.07 0.03 0.03 0.04 0.04 0.04 0.03 0.04 0.04 0.04 0.05 0.07 0.07 0.07 0.10 0.12 0.11 0.10 0.08 0.05 0.04 0.05 0.04 0.05 0.05 0.05 0.06 0.05 0.04 0.04 0.05 0.05 0.05 0.05 0.03 0.04
0.03 0.02 0.01 0.01 0.01 0.01 0.03 0.03 0.02 0.02 0.04 0.04 0.04 0.05 0.04 0.05 0.05 0.05 0.05 0.03 0.03 0.03 0.03 0.03 0.05 0.06 0.08 0.11 0.11 0.11 0.15 0.13 0.08 0.06 0.05 0.04 0.04 0.05 0.06 0.07 0.06 0.05 0.05 0.05 0.05 0.04 0.04 0.04 0.03
0.01 0.01 0.00 0.00 0.01 0.02 0.03 0.04 0.03 0.03 0.03 0.03 0.02 0.02 0.03 0.05 0.06 0.05 0.04 0.04 0.03 0.03 0.04 0.04 0.04 0.05 0.06 0.07 0.09 0.09 0.12 0.13 0.10 0.09 0.08 0.05 0.03 0.03 0.04 0.05 0.05 0.05 0.05 0.04 0.04 0.03 0.04 0.05 0.04
0.01 0.00 0.00 0.01 0.02 0.03 0.03 0.04 0.03 0.03 0.04 0.03 0.01 0.01 0.02 0.03 0.06 0.09 0.05 0.03 0.02 0.02 0.04 0.03 0.04 0.03 0.04 0.04 0.07 0.09 0.13 0.13 0.09 0.08 0.08 0.05 0.04 0.03 0.03 0.03 0.03 0.03 0.04 0.04 0.04 0.05 0.06 0.06 0.05
0.01 0.02 0.01 0.01 0.05 0.07 0.05 0.05 0.04 0.03 0.03 0.03 0.02 0.01 0.02 0.01 0.03 0.07 0.05 0.03 0.03 0.02 0.03 0.04 0.04 0.04 0.04 0.05 0.06 0.08 0.10 0.11 0.09 0.08 0.06 0.05 0.05 0.04 0.03 0.03 0.04 0.05 0.05 0.05 0.05 0.05 0.06 0.06 0.06
0.01 0.03 0.04 0.07 0.08 0.06 0.02 0.03 0.04 0.04 0.03 0.03 0.02 0.02 0.02 0.01 0.01 0.03 0.03 0.01 0.03 0.03 0.04 0.06 0.07 0.08 0.08 0.08 0.08 0.09 0.10 0.09 0.09 0.08 0.06 0.05 0.06 0.06 0.04 0.03 0.04 0.05 0.06 0.06 0.07 0.06 0.06 0.07 0.07
0.00 0.03 0.07 0.07 0.07 0.05 0.03 0.03 0.05 0.04 0.02 0.02 0.02 0.02 0.02 0.01 0.01 0.01 0.01 0.01 0.01 0.02 0.03 0.06 0.11 0.15 0.15 0.12 0.10 0.08 0.08 0.08 0.08 0.07 0.05 0.05 0.05 0.05 0.04 0.03 0.04 0.05 0.06 0.05 0.06 0.06 0.07 0.08 0.07
0.01 0.03 0.03 0.03 0.04 0.06 0.06 0.04 0.04 0.03 0.01 0.01 0.01 0.01 0.02 0.01 0.01 0.01 0.01 0.01 0.01 0.04 0.06 0.09 0.14 0.15 0.13 0.10 0.08 0.07 0.06 0.06 0.07 0.07 0.06 0.06 0.06 0.05 0.03 0.03 0.04 0.04 0.04 0.04 0.05 0.05 0.05 0.06 0.06
0.00 0.00 0.01 0.03 0.05 0.06 0.06 0.05 0.05 0.03 0.02 0.01 0.01 0.01 0.01 0.01 0.01 0.01 0.01 0.01 0.02 0.04 0.05 0.07 0.09 0.10 0.09 0.06 0.05 0.05 0.05 0.05 0.06 0.05 0.05 0.05 0.06 0.05 0.03 0.03 0.03 0.03 0.03 0.03 0.03 0.03 0.03 0.04 0.04
0.00 0.00 0.01 0.02 0.03 0.05 0.05 0.05 0.03 0.03 0.02 0.02 0.02 0.01 0.01 0.01 0.01 0.00 0.01 0.01 0.02 0.03 0.02 0.02 0.03 0.04 0.06 0.05 0.05 0.04 0.04 0.04 0.04 0.04 0.05 0.05 0.04 0.05 0.04 0.03 0.03 0.02 0.01 0.01 0.02 0.02 0.02 0.03 0.03
0.00 0.00 0.00 0.03 0.03 0.04 0.05 0.05 0.02 0.02 0.01 0.01 0.02 0.02 0.02 0.02 0.02 0.01 0.00 0.01 0.02 0.03 0.02 0.02 0.02 0.03 0.04 0.04 0.04 0.04 0.04 0.03 0.04 0.04 0.04 0.04 0.04 0.06 0.05 0.04 0.03 0.02 0.01 0.01 0.02 0.02 0.02 0.02 0.03
MSLP
1007.14 1007.58 1008.03 1008.33 1008.40 1008.20 1007.75 1007.16 1006.56 1006.09 1005.85 1005.87 1006.11 1006.47 1006.83 1007.09 1007.17 1007.05 1006.81 1006.54 1006.35 1006.33 1006.52 1006.91 1007.43 1007.97 1008.46 1008.81 1009.02 1009.12 1009.16 1009.23 1009.40 1009.70 1010.12 1010.61 1011.12 1011.55 1011.89 1012.09 1012.20 1012.25 1012.31 1012.41 1012.58 1012.82 1013.11 1013.39 1013.63
1007.19 1007.66 1008.06 1008.26 1008.19 1007.84 1007.27 1006.60 1005.96 1005.50 1005.28 1005.33 1005.60 1005.97 1006.33 1006.58 1006.66 1006.56 1006.36 1006.15 1006.05 1006.13 1006.41 1006.89 1007.47 1008.06 1008.57 1008.94 1009.15 1009.25 1009.29 1009.36 1009.53 1009.82 1010.23 1010.70 1011.17 1011.57 1011.88 1012.06 1012.15 1012.20 1012.27 1012.39 1012.59 1012.85 1013.15 1013.44 1013.69
1007.38 1007.81 1008.10 1008.15 1007.92 1007.43 1006.76 1006.04 1005.41 1004.99 1004.83 1004.93 1005.22 1005.58 1005.91 1006.11 1006.14 1006.01 1005.81 1005.63 1005.59 1005.75 1006.13 1006.69 1007.36 1008.02 1008.58 1009.00 1009.24 1009.36 1009.41 1009.49 1009.65 1009.92 1010.29 1010.71 1011.13 1011.50 1011.76 1011.92 1012.02 1012.09 1012.18 1012.34 1012.57 1012.87 1013.20 1013.51 1013.75
1007.67 1008.01 1008.16 1008.03 1007.64 1007.02 1006.29 1005.57 1004.99 1004.65 1004.58 1004.74 1005.05 1005.40 1005.67 1005.78 1005.72 1005.53 1005.29 1005.11 1005.10 1005.33 1005.78 1006.43 1007.18 1007.91 1008.54 1009.00 1009.29 1009.44 1009.52 1009.61 1009.75 1010.00 1010.32 1010.69 1011.06 1011.37 1011.61 1011.76 1011.86 1011.95 1012.08 1012.28 1012.56 1012.89 1013.24 1013.55 1013.79
1008.00 1008.21 1008.17 1007.88 1007.33 1006.63 1005.89 1005.22 1004.74 1004.53 1004.57 1004.81 1005.15 1005.47 1005.67 1005.68 1005.52 1005.24 1004.94 1004.75 1004.75 1005.01 1005.52 1006.22 1007.02 1007.80 1008.47 1008.97 1009.30 1009.48 1009.58 1009.68 1009.82 1010.04 1010.33 1010.65 1010.97 1011.25 1011.45 1011.60 1011.71 1011.82 1011.98 1012.21 1012.52 1012.86 1013.22 1013.53 1013.76
1008.24 1008.29 1008.09 1007.64 1007.00 1006.27 1005.57 1005.01 1004.68 1004.62 1004.80 1005.13 1005.50 1005.80 1005.93 1005.86 1005.60 1005.24 1004.89 1004.67 1004.67 1004.93 1005.45 1006.16 1006.97 1007.75 1008.42 1008.93 1009.26 1009.46 1009.58 1009.69 1009.84 1010.05 1010.31 1010.61 1010.90 1011.14 1011.33 1011.47 1011.58 1011.71 1011.89 1012.13 1012.43 1012.77 1013.10 1013.39 1013.60
1008.27 1008.18 1007.84 1007.29 1006.62 1005.93 1005.33 1004.93 1004.78 1004.90 1005.22 1005.64 1006.05 1006.34 1006.42 1006.29 1005.97 1005.57 1005.19 1004.94 1004.93 1005.17 1005.66 1006.33 1007.07 1007.79 1008.41 1008.87 1009.18 1009.37 1009.50 1009.62 1009.78 1010.00 1010.26 1010.55 1010.82 1011.05 1011.23 1011.36 1011.47 1011.60 1011.76 1011.99 1012.26 1012.57 1012.87 1013.13 1013.32
1008.05 1007.84 1007.42 1006.85 1006.22 1005.63 1005.18 1004.97 1005.02 1005.31 1005.76 1006.27 1006.72 1007.01 1007.07 1006.92 1006.59 1006.18 1005.80 1005.56 1005.53 1005.73 1006.15 1006.71 1007.33 1007.92 1008.42 1008.78 1009.03 1009.19 1009.31 1009.44 1009.63 1009.87 1010.15 1010.45 1010.72 1010.95 1011.12 1011.24 1011.34 1011.45 1011.59 1011.79 1012.02 1012.29 1012.55 1012.77 1012.94
1007.61 1007.34 1006.91 1006.38 1005.85 1005.42 1005.17 1005.15 1005.38 1005.82 1006.38 1006.95 1007.43 1007.73 1007.80 1007.66 1007.36 1006.99 1006.65 1006.44 1006.39 1006.53 1006.84 1007.25 1007.70 1008.10 1008.42 1008.65 1008.80 1008.90 1009.01 1009.15 1009.37 1009.64 1009.95 1010.27 1010.56 1010.79 1010.96 1011.08 1011.17 1011.25 1011.37 1011.53 1011.73 1011.95 1012.17 1012.37 1012.53
1007.06 1006.80 1006.43 1006.01 1005.64 1005.39 1005.33 1005.51 1005.89 1006.44 1007.06 1007.65 1008.13 1008.43 1008.53 1008.43 1008.20 1007.91 1007.64 1007.46 1007.41 1007.48 1007.65 1007.88 1008.10 1008.28 1008.40 1008.46 1008.49 1008.52 1008.60 1008.75 1008.99 1009.30 1009.65 1009.99 1010.29 1010.54 1010.72 1010.83 1010.92 1011.00 1011.11 1011.24 1011.41 1011.60 1011.80 1011.99 1012.14
1006.59 1006.38 1006.12 1005.85 1005.67 1005.62 1005.75 1006.07 1006.56 1007.15 1007.77 1008.35 1008.80 1009.09 1009.21 1009.17 1009.03 1008.83 1008.65 1008.52 1008.45 1008.44 1008.46 1008.49 1008.48 1008.42 1008.32 1008.20 1008.10 1008.06 1008.11 1008.26 1008.52 1008.86 1009.23 1009.60 1009.92 1010.18 1010.37 1010.51 1010.61 1010.70 1010.81 1010.95 1011.12 1011.31 1011.50 1011.68 1011.84
1006.33 1006.22 1006.10 1006.01 1006.02 1006.15 1006.44 1006.86 1007.39 1007.97 1008.55 1009.05 1009.44 1009.69 1009.82 1009.83 1009.78 1009.68 1009.58 1009.49 1009.40 1009.31 1009.19 1009.01 1008.78 1008.49 1008.19 1007.90 1007.68 1007.56 1007.58 1007.73 1007.99 1008.34 1008.73 1009.11 1009.44 1009.72 1009.93 1010.09 1010.23 1010.37 1010.52 1010.69 1010.88 1011.09 1011.29 1011.47 1011.64
1006.37 1006.38 1006.41 1006.50 1006.69 1006.98 1007.38 1007.86 1008.38 1008.90 1009.37 1009.77 1010.06 1010.26 1010.37 1010.41 1010.42 1010.41 1010.37 1010.31 1010.20 1010.02 1009.76 1009.41 1008.97 1008.50 1008.02 1007.60 1007.28 1007.10 1007.07 1007.20 1007.46 1007.80 1008.18 1008.55 1008.89 1009.18 1009.42 1009.63 1009.82 1010.02 1010.24 1010.47 1010.71 1010.94 1011.16 1011.36 1011.52
1006.70 1006.83 1007.01 1007.26 1007.60 1008.01 1008.49 1008.99 1009.46 1009.89 1010.24 1010.50 1010.68 1010.80 1010.87 1010.92 1010.97 1011.00 1011.00 1010.94 1010.80 1010.54 1010.16 1009.67 1009.09 1008.46 1007.87 1007.35 1006.96 1006.73 1006.67 1006.77 1006.99 1007.30 1007.64 1007.98 1008.31 1008.61 1008.88 1009.14 1009.40 1009.68 1009.97 1010.28 1010.57 1010.85 1011.09 1011.28 1011.42
1007.20 1007.43 1007.74 1008.13 1008.59 1009.11 1009.64 1010.14 1010.56 1010.89 1011.11 1011.24 1011.31 1011.33 1011.35 1011.39 1011.43 1011.47 1011.47 1011.39 1011.21 1010.88 1010.41 1009.82 1009.14 1008.44 1007.77 1007.20 1006.78 1006.52 1006.42 1006.48 1006.65 1006.90 1007.18 1007.47 1007.77 1008.06 1008.35 1008.66 1009.00 1009.35 1009.73 1010.10 1010.45 1010.76 1011.00 1011.18 1011.29
1007.70 1008.01 1008.42 1008.93 1009.51 1010.12 1010.70 1011.20 1011.59 1011.84 1011.96 1011.98 1011.94 1011.88 1011.84 1011.82 1011.84 1011.85 1011.82 1011.70 1011.46 1011.08 1010.55 1009.90 1009.18 1008.45 1007.77 1007.20 1006.77 1006.50 1006.37 1006.38 1006.48 1006.65 1006.85 1007.08 1007.33 1007.60 1007.90 1008.25 1008.63 1009.05 1009.49 1009.91 1010.29 1010.61 1010.85 1010.99 1011.05
1008.03 1008.41 1008.93 1009.55 1010.24 1010.94 1011.59 1012.13 1012.50 1012.71 1012.76 1012.70 1012.58 1012.44 1012.33 1012.25 1012.21 1012.16 1012.07 1011.90 1011.60 1011.17 1010.61 1009.94 1009.23 1008.53 1007.88 1007.35 1006.94 1006.67 1006.52 1006.48 1006.50 1006.58 1006.69 1006.84 1007.02 1007.25 1007.55 1007.91 1008.33 1008.78 1009.25 1009.69 1010.08 1010.38 1010.59 1010.69 1010.70
1008.11 1008.57 1009.18 1009.93 1010.75 1011.56 1012.30 1012.89 1013.30 1013.49 1013.52 1013.41 1013.22 1013.01 1012.83 1012.67 1012.55 1012.42 1012.26 1012.01 1011.66 1011.19 1010.62 1009.98 1009.31 1008.67 1008.09 1007.62 1007.26 1007.00 1006.84 1006.74 1006.69 1006.68 1006.70 1006.76 1006.87 1007.06 1007.33 1007.69 1008.10 1008.56 1009.02 1009.45 1009.81 1010.08 1010.24 1010.30 1010.27
1007.96 1008.49 1009.23 1010.12 1011.09 1012.04 1012.89 1013.57 1014.02 1014.24 1014.25 1014.11 1013.87 1013.60 1013.33 1013.09 1012.87 1012.65 1012.40 1012.08 1011.67 1011.18 1010.61 1010.01 1009.41 1008.85 1008.37 1007.97 1007.66 1007.43 1007.26 1007.12 1007.01 1006.91 1006.84 1006.82 1006.88 1007.01 1007.25 1007.57 1007.96 1008.39 1008.81 1009.20 1009.51 1009.73 1009.84 1009.86 1009.80
1007.67 1008.32 1009.20 1010.26 1011.39 1012.50 1013.48 1014.25 1014.76 1015.00 1015.00 1014.83 1014.53 1014.19 1013.83 1013.49 1013.17 1012.85 1012.50 1012.10 1011.65 1011.14 1010.59 1010.04 1009.51 1009.05 1008.65 1008.33 1008.08 1007.88 1007.70 1007.53 1007.37 1007.21 1007.07 1006.99 1006.99 1007.08 1007.27 1007.55 1007.90 1008.28 1008.64 1008.96 1009.21 1009.37 1009.44 1009.43 1009.36
1007.42 1008.21 1009.26 1010.50 1011.81 1013.07 1014.17 1015.02 1015.57 1015.82 1015.80 1015.57 1015.21 1014.77 1014.31 1013.86 1013.43 1013.01 1012.57 1012.11 1011.61 1011.09 1010.57 1010.07 1009.61 1009.22 1008.90 1008.65 1008.45 1008.27 1008.09 1007.90 1007.69 1007.49 1007.31 1007.19 1007.15 1007.21 1007.36 1007.61 1007.90 1008.22 1008.52 1008.77 1008.95 1009.05 1009.08 1009.06 1009.00
1007.37 1008.32 1009.57 1010.99 1012.46 1013.85 1015.04 1015.94 1016.50 1016.71 1016.63 1016.32 1015.86 1015.32 1014.75 1014.20 1013.66 1013.14 1012.63 1012.11 1011.59 1011.07 1010.56 1010.10 1009.69 1009.36 1009.10 1008.89 1008.71 1008.54 1008.35 1008.15 1007.92 1007.69 1007.50 1007.36 1007.30 1007.34 1007.48 1007.69 1007.94 1008.20 1008.44 1008.62 1008.75 1008.81 1008.81 1008.79 1008.76
1007.62 1008.74 1010.16 1011.74 1013.35 1014.83 1016.06 1016.96 1017.48 1017.62 1017.45 1017.03 1016.46 1015.81 1015.13 1014.47 1013.85 1013.26 1012.69 1012.14 1011.60 1011.08 1010.59 1010.15 1009.78 1009.47 1009.23 1009.03 1008.85 1008.67 1008.47 1008.25 1008.01 1007.77 1007.57 1007.43 1007.38 1007.42 1007.55 1007.75 1007.98 1008.20 1008.39 1008.53 1008.61 1008.64 1008.64 1008.62 1008.62
1008.17 1009.43 1010.98 1012.68 1014.37 1015.89 1017.12 1017.97 1018.41 1018.46 1018.17 1017.64 1016.95 1016.19 1015.42 1014.69 1014.00 1013.37 1012.77 1012.21 1011.67 1011.15 1010.68 1010.25 1009.88 1009.57 1009.32 1009.10 1008.89 1008.68 1008.45 1008.20 1007.94 1007.70 1007.51 1007.39 1007.36 1007.42 1007.56 1007.76 1007.99 1008.20 1008.36 1008.47 1008.53 1008.54 1008.53 1008.53 1008.55
1008.91 1010.27 1011.91 1013.66 1015.37 1016.87 1018.05 1018.82 1019.16 1019.09 1018.69 1018.05 1017.28 1016.44 1015.61 1014.84 1014.14 1013.49 1012.90 1012.35 1011.82 1011.32 1010.85 1010.42 1010.04 1009.70 1009.40 1009.13 1008.87 1008.60 1008.32 1008.03 1007.75 1007.51 1007.32 1007.22 1007.22 1007.32 1007.49 1007.71 1007.95 1008.17 1008.33 1008.44 1008.48 1008.49 1008.47 1008.47 1008.50
1009.71 1011.10 1012.75 1014.49 1016.15 1017.59 1018.67 1019.35 1019.59 1019.42 1018.94 1018.24 1017.41 1016.55 1015.71 1014.95 1014.26 1013.65 1013.10 1012.57 1012.08 1011.59 1011.13 1010.69 1010.27 1009.89 1009.52 1009.17 1008.83 1008.49 1008.14 1007.81 1007.50 1007.24 1007.06 1006.98 1007.01 1007.14 1007.35 1007.61 1007.88 1008.12 1008.30 1008.42 1008.46 1008.46 1008.44 1008.43 1008.45
1010.41 1011.77 1013.36 1015.02 1016.58 1017.90 1018.89 1019.46 1019.62 1019.40 1018.88 1018.17 1017.36 1016.53 1015.74 1015.04 1014.41 1013.86 1013.37 1012.89 1012.43 1011.97 1011.51 1011.05 1010.59 1010.14 1009.71 1009.27 1008.85 1008.42 1008.00 1007.60 1007.25 1006.97 1006.78 1006.71 1006.77 1006.93 1007.18 1007.48 1007.79 1008.06 1008.28 1008.41 1008.47 1008.46 1008.43 1008.39 1008.38
1010.93 1012.19 1013.65 1015.17 1016.59 1017.79 1018.66 1019.16 1019.27 1019.05 1018.56 1017.91 1017.17 1016.44 1015.75 1015.14 1014.61 1014.15 1013.72 1013.31 1012.88 1012.44 1011.97 1011.49 1010.99 1010.48 1009.97 1009.45 1008.94 1008.43 1007.93 1007.47 1007.07 1006.75 1006.56 1006.49 1006.55 1006.74 1007.03 1007.37 1007.71 1008.02 1008.27 1008.42 1008.49 1008.48 1008.43 1008.36 1008.30
1011.25 1012.36 1013.66 1014.99 1016.25 1017.30 1018.08 1018.52 1018.64 1018.47 1018.07 1017.53 1016.93 1016.34 1015.79 1015.31 1014.89 1014.51 1014.15 1013.79 1013.39 1012.96 1012.49 1011.98 1011.44 1010.88 1010.31 1009.72 1009.13 1008.55 1007.99 1007.46 1007.01 1006.66 1006.44 1006.36 1006.42 1006.62 1006.93 1007.29 1007.67 1008.02 1008.29 1008.46 1008.53 1008.52 1008.44 1008.33 1008.22
1011.46 1012.40 1013.49 1014.63 1015.71 1016.63 1017.32 1017.74 1017.90 1017.81 1017.55 1017.17 1016.74 1016.31 1015.91 1015.56 1015.25 1014.95 1014.64 1014.31 1013.93 1013.50 1013.01 1012.48 1011.91 1011.31 1010.70 1010.06 1009.42 1008.78 1008.17 1007.60 1007.10 1006.71 1006.45 1006.35 1006.40 1006.60 1006.90 1007.28 1007.68 1008.05 1008.33 1008.52 1008.60 1008.57 1008.46 1008.31 1008.14
Thickness
5819 5824 5826 5821 5805 5796 5796 5818 5830 5829 5830 5837 5838 5832 5819 5810 5799 5787 5815 5827 5824 5817 5810 5805 5800 5797 5794 5791 5788 5786 5784 5781 5779 5776 5774 5772 5770 5769 5767 5765 5763 5762 5760 5759 5757 5755 5754 5753 5752
5822 5828 5824 5814 5794 5785 5797 5820 5824 5828 5835 5840 5837 5830 5818 5812 5817 5814 5817 5822 5821 5814 5808 5803 5797 5793 5790 5787 5785 5783 5781 5778 5775 5774 5772 5770 5768 5766 5764 5762 5760 5759 5757 5755 5754 5752 5751 5750 5750
5820 5827 5814 5806 5795 5792 5800 5819 5824 5834 5839 5835 5827 5825 5815 5809 5815 5814 5818 5821 5818 5812 5806 5799 5794 5790 5787 5783 5781 5779 5777 5775 5772 5770 5769 5767 5765 5763 5761 5759 5757 5756 5754 5753 5751 5750 5749 5748 5747
5820 5820 5813 5800 5794 5812 5819 5824 5830 5829 5832 5833 5825 5814 5814 5819 5818 5817 5820 5819 5814 5809 5803 5795 5791 5787 5784 5780 5778 5776 5774 5771 5769 5767 5765 5763 5762 5759 5758 5756 5754 5753 5751 5750 5749 5747 5746 5745 5744
5821 5810 5797 5791 5801 5821 5832 5836 5834 5824 5823 5826 5821 5806 5802 5816 5822 5820 5818 5815 5810 5806 5800 5791 5787 5784 5780 5777 5775 5773 5770 5768 5766 5764 5762 5760 5758 5757 5755 5753 5751 5750 5748 5747 5746 5745 5744 5743 5742
5809 5809 5789 5787 5805 5822 5832 5837 5831 5823 5820 5823 5816 5802 5798 5812 5814 5815 5815 5812 5809 5803 5797 5788 5784 5781 5778 5775 5773 5770 5767 5765 5762 5760 5758 5757 5755 5754 5752 5750 5749 5747 5746 5745 5744 5743 5742 5741 5740
5802 5799 5791 5798 5806 5814 5825 5833 5825 5817 5810 5814 5818 5801 5797 5804 5810 5813 5812 5809 5805 5800 5793 5786 5781 5778 5775 5772 5769 5766 5764 5762 5759 5757 5755 5753 5752 5751 5749 5747 5746 5744 5743 5742 5741 5740 5739 5738 5737
5816 5802 5793 5799 5802 5808 5826 5830 5827 5817 5809 5821 5819 5798 5791 5801 5810 5809 5806 5804 5800 5796 5790 5786 5780 5776 5773 5768 5765 5763 5761 5759 5756 5754 5752 5750 5749 5748 5747 5745 5744 5742 5741 5739 5739 5738 5737 5735 5735
5820 5793 5784 5794 5800 5807 5823 5821 5824 5828 5818 5815 5816 5810 5805 5807 5806 5800 5796 5794 5792 5789 5786 5781 5778 5774 5771 5767 5763 5760 5758 5755 5753 5751 5749 5747 5747 5746 5745 5744 5742 5740 5738 5737 5736 5735 5734 5733 5733
5810 5786 5791 5808 5813 5812 5816 5817 5817 5815 5807 5805 5805 5807 5806 5802 5797 5791 5788 5785 5783 5780 5780 5779 5775 5772 5769 5766 5761 5758 5756 5753 5750 5749 5747 5745 5745 5745 5744 5741 5739 5737 5736 5735 5733 5732 5732 5731 5731
5809 5796 5804 5811 5816 5817 5813 5813 5818 5806 5796 5800 5796 5796 5797 5795 5792 5788 5784 5783 5780 5778 5774 5772 5771 5769 5766 5762 5758 5756 5754 5751 5748 5747 5745 5744 5743 5742 5740 5738 5736 5734 5733 5732 5731 5730 5729 5730 5729
5808 5810 5813 5812 5816 5813 5810 5809 5806 5803 5801 5807 5804 5797 5794 5789 5787 5785 5781 5779 5778 5775 5771 5770 5768 5764 5761 5758 5755 5753 5751 5748 5747 5744 5742 5741 5739 5738 5737 5735 5733 5731 5730 5729 5729 5728 5727 5726 5726
5805 5810 5817 5817 5815 5814 5810 5804 5801 5799 5806 5808 5802 5793 5788 5787 5785 5784 5782 5778 5774 5770 5768 5766 5764 5759 5757 5753 5750 5749 5747 5745 5744 5742 5739 5737 5735 5734 5733 5731 5730 5728 5728 5727 5725 5724 5723 5722 5721
5806 5810 5813 5813 5812 5811 5803 5801 5797 5795 5802 5797 5793 5788 5786 5783 5781 5779 5776 5771 5769 5766 5763 5762 5759 5755 5753 5748 5745 5744 5743 5741 5740 5738 5736 5733 5732 5730 5728 5727 5726 5724 5723 5722 5721 5720 5719 5718 5717
5808 5799 5800 5807 5808 5809 5801 5788 5790 5795 5796 5788 5785 5784 5782 5779 5777 5774 5771 5768 5766 5762 5759 5756 5755 5752 5747 5744 5741 5740 5738 5737 5735 5733 5731 5730 5727 5725 5723 5722 5721 5720 5719 5718 5716 5715 5713 5712 5711
5796 5786 5779 5797 5803 5803 5789 5769 5787 5794 5789 5781 5780 5779 5775 5773 5773 5772 5769 5764 5762 5758 5755 5752 5752 5746 5742 5738 5735 5734 5732 5731 5730 5728 5727 5724 5723 5720 5718 5716 5716 5716 5715 5713 5711 5709 5706 5705 5705
5778 5770 5772 5786 5799 5797 5785 5768 5779 5789 5785 5777 5776 5774 5771 5768 5768 5768 5766 5762 5758 5755 5750 5747 5744 5740 5737 5734 5731 5729 5727 5724 5724 5723 5721 5719 5718 5717 5715 5713 5712 5711 5710 5708 5706 5703 5701 5698 5698
5770 5773 5771 5775 5793 5791 5777 5771 5779 5784 5780 5776 5773 5770 5766 5763 5764 5764 5762 5760 5756 5751 5747 5743 5739 5736 5733 5729 5725 5723 5721 5719 5718 5717 5716 5715 5714 5712 5711 5710 5708 5707 5704 5702 5700 5697 5695 5693 5692
5784 5775 5771 5782 5798 5786 5774 5771 5775 5780 5779 5774 5771 5768 5764 5763 5764 5763 5760 5756 5751 5747 5742 5739 5735 5732 5728 5723 5719 5716 5714 5714 5713 5713 5712 5711 5710 5708 5707 5705 5703 5702 5699 5696 5694 5691 5689 5688 5687
5780 5772 5774 5785 5796 5786 5774 5772 5779 5780 5777 5774 5771 5766 5764 5761 5758 5757 5755 5751 5747 5742 5738 5735 5731 5728 5724 5721 5718 5715 5714 5712 5711 5710 5708 5707 5706 5704 5703 5699 5698 5696 5693 5691 5689 5686 5683 5682 5682
5778 5776 5776 5779 5788 5789 5776 5764 5769 5776 5778 5776 5773 5770 5766 5761 5754 5751 5749 5747 5744 5739 5735 5733 5728 5725 5721 5718 5715 5712 5710 5707 5706 5704 5703 5703 5701 5699 5697 5695 5693 5691 5689 5686 5683 5681 5677 5674 5676
5776 5791 5788 5784 5775 5770 5774 5749 5759 5767 5766 5768 5767 5766 5763 5759 5754 5749 5745 5742 5740 5738 5734 5730 5725 5721 5717 5714 5711 5707 5703 5700 5700 5700 5699 5698 5697 5696 5694 5691 5689 5687 5684 5681 5679 5677 5674 5671 5668
5787 5798 5791 5785 5772 5762 5767 5753 5756 5769 5757 5759 5763 5764 5761 5757 5751 5744 5742 5739 5737 5735 5731 5726 5721 5717 5714 5711 5708 5704 5701 5698 5697 5696 5695 5693 5693 5692 5690 5687 5684 5682 5679 5677 5675 5672 5669 5667 5664
5799 5792 5787 5783 5772 5743 5755 5748 5748 5761 5759 5759 5762 5763 5759 5755 5750 5744 5743 5739 5735 5733 5729 5724 5718 5714 5712 5709 5705 5700 5697 5695 5692 5690 5689 5688 5687 5686 5684 5683 5680 5678 5675 5673 5671 5669 5666 5663 5661
5793 5771 5750 5743 5741 5744 5765 5754 5752 5769 5772 5766 5762 5760 5758 5754 5749 5744 5740 5736 5732 5729 5725 5720 5715 5710 5708 5705 5701 5698 5695 5692 5689 5686 5685 5683 5682 5680 5678 5677 5675 5674 5672 5670 5668 5665 5662 5660 5657
5784 5773 5743 5727 5730 5747 5760 5747 5754 5769 5773 5772 5768 5762 5757 5753 5748 5743 5739 5734 5729 5725 5721 5717 5712 5707 5704 5700 5697 5696 5693 5690 5687 5685 5683 5680 5678 5676 5675 5674 5672 5670 5669 5667 5664 5661 5658 5655 5653
5780 5776 5780 5759 5751 5742 5748 5752 5753 5767 5767 5765 5762 5758 5754 5750 5746 5742 5738 5733 5728 5723 5718 5714 5709 5705 5702 5699 5696 5693 5690 5687 5684 5683 5681 5678 5675 5674 5672 5671 5669 5667 5665 5663 5660 5658 5655 5652 5649
5794 5786 5772 5752 5734 5727 5738 5746 5744 5752 5756 5759 5757 5754 5752 5748 5743 5739 5735 5730 5726 5721 5716 5712 5706 5702 5699 5696 5693 5691 5687 5685 5682 5680 5677 5675 5672 5670 5669 5667 5665 5663 5661 5659 5657 5654 5652 5648 5646
5782 5776 5771 5763 5755 5733 5725 5736 5762 5757 5759 5758 5756 5754 5750 5746 5740 5736 5732 5728 5723 5718 5713 5707 5703 5699 5695 5692 5689 5687 5684 5682 5680 5677 5675 5672 5670 5668 5666 5663 5661 5659 5657 5655 5652 5650 5648 5644 5642
5791 5781 5773 5749 5744 5749 5737 5736 5769 5765 5763 5760 5756 5753 5749 5744 5739 5735 5729 5724 5719 5714 5709 5704 5701 5697 5694 5691 5687 5684 5681 5678 5676 5673 5671 5669 5667 5664 5662 5660 5658 5656 5653 5651 5648 5646 5644 5641 5637